Weather History for Taba International, Egypt

Change the Weather History Date:

Saturday, June 22, 2013

  Actual Average Record
Temperature  
Mean Temperature 82 °F -  
Max Temperature 95 °F - - ()
Min Temperature 69 °F - - ()
Cooling Degree Days 17    
Growing Degree Days 32 (Base 50)    
Moisture  
Dew Point 39 °F    
Average Humidity 24    
Maximum Humidity 41    
Minimum Humidity 12    
Precipitation  
Precipitation 0.00 in - - ()
Sea Level Pressure  
Sea Level Pressure 29.88 in    
Wind  
Wind Speed 4 mph ()    
Max Wind Speed 20 mph    
Max Gust Speed 16 mph    
Visibility 5.3 miles    
Events      
T = Trace of Precipitation, MM = Missing Value Source: Averaged Metar Reports

Daily Weather History Graph

Daily Weather History Graph

Search for Another Location

Airport:

Trip Planner

Search our weather history database for the weather conditions in past years. The results will help you decide how hot, cold, wet, or windy it might be!

Date:

Astronomy

Jun. 22, 2013 Rise Set
Actual Time 4:41 AM EET 6:44 PM EET
Civil Twilight 4:14 AM EET 7:11 PM EET
Nautical Twilight 3:41 AM EET 7:44 PM EET
Astronomical Twilight 3:05 AM EET 8:20 PM EET
Moon 5:41 PM EET (6/22) 3:28 AM EET (6/22)
Length of Visible Light 14h 57m
Length of Day
14h 02m
Waxing Gibbous, 98% of the Moon is Illuminated
Jun 22
Waxing Gibbous
Jun 23
Full
Jun 30
Last Quarter
Jul 8
New
Jul 16
First Quarter

Hourly Weather History & Observations

Time (EET) Temp. Dew Point Humidity Pressure Visibility Wind Dir Wind Speed Gust Speed Precip Events Conditions
2:00 AM 71.6 °F 39.2 °F 31% 29.89 in - WNW 5.8 mph - N/A   Clear
3:00 AM 69.8 °F 39.2 °F 33% 29.89 in - WNW 4.6 mph - N/A   Clear
4:00 AM 69.8 °F 41.0 °F 35% 29.89 in - West 6.9 mph - N/A   Clear
5:00 AM 69.8 °F 37.4 °F 31% 29.89 in - Calm Calm - N/A   Clear
6:00 AM 71.6 °F 35.6 °F 27% 29.89 in - Calm Calm - N/A   Clear
7:00 AM 75.2 °F 37.4 °F 25% 29.92 in - Calm Calm - N/A   Clear
8:00 AM 80.6 °F 39.2 °F 23% 29.92 in - Calm Calm - N/A   Clear
9:00 AM 86.0 °F 35.6 °F 17% 29.92 in - Calm Calm - N/A   Clear
10:00 AM 87.8 °F 35.6 °F 16% 29.92 in - Calm Calm - N/A   Clear
11:00 AM 89.6 °F 35.6 °F 15% 29.92 in - Calm Calm - N/A   Clear
12:00 PM 91.4 °F 33.8 °F 13% 29.89 in - Calm Calm - N/A   Clear
2:00 PM 93.2 °F 33.8 °F 12% 29.86 in 6.2 mi Variable 2.3 mph 16.1 mph N/A   Scattered Clouds
3:00 PM 93.2 °F 33.8 °F 12% 29.86 in 6.2 mi West 4.6 mph - N/A   Scattered Clouds
4:00 PM 95.0 °F 33.8 °F 12% 29.83 in 6.2 mi WSW 10.4 mph - N/A   Scattered Clouds
5:00 PM 95.0 °F 33.8 °F 12% 29.83 in 6.2 mi WSW 10.4 mph - N/A   Scattered Clouds
6:00 PM 93.2 °F 33.8 °F 12% 29.83 in 6.2 mi WSW 10.4 mph - N/A   Scattered Clouds
8:00 PM 84.2 °F 50.0 °F 30% 29.86 in 2.5 mi WNW 19.6 mph - N/A   Sand
9:00 PM 80.6 °F 51.8 °F 37% 29.89 in 3.7 mi WNW 16.1 mph - N/A   Partly Cloudy
10:00 PM 77.0 °F 50.0 °F 39% 29.89 in - WNW 15.0 mph - N/A   Clear
11:00 PM 75.2 °F 50.0 °F 41% 29.89 in - WNW 10.4 mph - N/A   Clear